Regional Weather Roundup
Issued by NWS

Home | Current Version | Previous Version | Graphics & Text | Print | Product List | Glossary On
Versions: 1 2 3 4 5 6 7 8 9 10 11 12 13 14 15 16 17 18 19 20 21 22 23 24 25 26 27 28 29 30 31 32 33 34 35 36 37 38 39 40 41 42 43 44 45 46 47 48 49 50
000
ASUS43 KBIS 201720
RWRND

NORTH DAKOTA REGIONAL WEATHER ROUNDUP
NATIONAL WEATHER SERVICE BISMARCK ND
1200 PM CDT SAT SEP 20 2014

NOTE: "FAIR" INDICATES FEW OR NO CLOUDS BELOW 12,000 FEET WITH NO
SIGNIFICANT WEATHER AND/OR OBSTRUCTIONS TO VISIBILITY.


NDZ001>003-009>011-017-201800-
NORTHWEST NORTH DAKOTA

CITY           SKY/WX    TMP DP  RH WIND       PRES   REMARKS
WILLISTON      MOSUNNY   68  44  42 NW21G32   30.02R
MINOT          MOSUNNY   64  51  62 W26       29.90R
MINOT AFB      MOSUNNY   64  53  68 NW28G36   29.89R
$$

NDZ018>021-031>035-040>046-201800-
SOUTHWEST NORTH DAKOTA

CITY           SKY/WX    TMP DP  RH WIND       PRES   REMARKS
BISMARCK       PTSUNNY   67  51  56 NW12G20   29.91R
DICKINSON      SUNNY     68  45  43 NW25G32   30.02R
GARRISON         N/A     64  51  62 NW23G30   29.93R
HETTINGER ARPT SUNNY     66  47  50 NW25G33   30.06R
$$

NDZ004>008-012>016-024-026-027-054-201800-
NORTHEAST NORTH DAKOTA

CITY           SKY/WX    TMP DP  RH WIND       PRES   REMARKS
GRAND FORKS    CLOUDY    67  57  70 S9        29.73F
GRND FRKS AFB  PTSUNNY   67  59  74 SW8       29.73F
DEVILS LAKE    CLOUDY    55  48  76 NW13      29.82R
$$

NDZ022-023-025-028>030-036>039-047>053-201800-
SOUTHEAST NORTH DAKOTA

CITY           SKY/WX    TMP DP  RH WIND       PRES   REMARKS
FARGO          SUNNY     69  57  65 S10       29.78F
JAMESTOWN      CLOUDY    62  58  86 W14       29.85R
$$



USA.gov is the U.S. government's official web portal to all federal, state and local government web resources and services.